Home   Weather   47°09'N, 27°35'E   Past weeks
Flag for Romania

Past Weather in 47°09'N, 27°35'E, Romania — Yesterday and Last 2 Weeks

Now
55 °F

Fog.


Feels Like: 55 °F
Forecast: 70 / 50 °F
Wind: 1 mph from North

Location: Iasi Airport

Current Time: Oct 22, 2019 at 2:34:09 pm

Latest Report: Oct 22, 2019 at 1:30 pm


Visibility: 1 mi

Pressure: 30.27 "Hg

Humidity: 100%

Dew Point: 55 °F

Location of 47°09'N, 27°35'ELocation

Past Weather in 47°09'N, 27°35'E — Graph

°F

47°09'N, 27°35'E Temperature Yesterday

Maximum temperature yesterday: 68 °F (at 2:00 pm)
Minimum temperature yesterday: 52 °F (at 4:00 am)
Average temperature yesterday: 58 °F

High & Low Weather Summary for the Past Weeks

 TemperatureHumidityPressure
High73 °F (Oct 10, 1:30 pm)100% (Oct 14, 9:00 am)30.27 "Hg (Oct 14, 9:00 am)
Low36 °F (Oct 8, 5:30 am)25% (Oct 13, 2:00 pm)29.86 "Hg (Oct 10, 4:00 am)
Average55 °F77%30.12 "Hg
* Reported Oct 7 1:00 pm — Oct 22 1:00 pm, 47°09'N, 27°35'E. Weather by CustomWeather, © 2019

Note: Actual official high and low records may vary slightly from our data, if they occured in-between our weather recording intervals... More about our weather records

Advertising

47°09'N, 27°35'E Weather History for the Previous 24 Hours

Scroll right to see more
 ConditionsComfort  
Time TempWeatherWind HumidityBarometerVisibility
1:00 pm
Tue, Oct 22
55 °FFog.2 mph100%30.27 "Hg1 mi
12:30 pm55 °FFog.2 mph100%30.27 "Hg0 mi
12:00 pm55 °FFog.3 mph100%30.27 "Hg1 mi
11:30 am55 °FFog.1 mph100%30.27 "Hg1 mi
11:00 am54 °FFog.2 mph100%30.27 "Hg2 mi
10:00 am54 °FFog.2 mph100%30.27 "Hg0 mi
9:30 am54 °FDrizzle. Fog.1 mph100%30.27 "Hg0 mi
9:00 am52 °FFog.No wind100%30.27 "Hg0 mi
8:30 am52 °FFog.2 mph100%30.27 "Hg0 mi
8:00 am52 °FFog.2 mph100%30.24 "Hg0 mi
7:30 am52 °FFog.3 mph100%30.24 "Hg0 mi
7:00 am50 °FFog.2 mph100%30.24 "Hg0 mi
6:30 am50 °FFog.2 mph100%30.24 "Hg0 mi
6:00 am50 °FFog.1 mph100%30.24 "Hg0 mi
5:30 am50 °FFog.2 mph100%30.24 "Hg0 mi
4:30 am52 °FFog.5 mph94%30.24 "Hg1 mi
4:00 am52 °FFog.5 mph94%30.24 "Hg2 mi
3:30 am52 °FFog.7 mph100%30.24 "Hg1 mi
3:00 am52 °FFog.6 mph100%30.21 "Hg2 mi
2:30 am54 °FFog.9 mph94%30.21 "Hg2 mi
2:00 am54 °FFog.8 mph100%30.21 "Hg3 mi
1:30 am54 °FFog.8 mph100%30.21 "Hg3 mi
1:00 am54 °FFog.8 mph100%30.21 "Hg3 mi
12:30 am55 °FClear.8 mph94%30.21 "Hg4 mi
12:00 am55 °FClear.7 mph94%30.21 "Hg4 mi
11:30 pm
Mon, Oct 21
57 °FClear.8 mph94%30.21 "Hg4 mi
11:00 pm55 °FClear.7 mph100%30.21 "Hg4 mi
10:30 pm57 °FClear.7 mph94%30.21 "Hg5 mi
10:00 pm57 °FClear.7 mph88%30.21 "Hg10 mi
9:30 pm57 °FClear.7 mph94%30.21 "Hg10 mi
9:00 pm57 °FClear.6 mph94%30.21 "Hg10 mi
8:30 pm59 °FClear.8 mph88%30.21 "Hg10 mi
8:00 pm59 °FClear.7 mph88%30.21 "Hg10 mi
7:30 pm59 °FClear.10 mph88%30.18 "Hg10 mi
7:00 pm61 °FClear.12 mph88%30.18 "Hg10 mi
6:30 pm61 °FClear.13 mph88%30.18 "Hg10 mi
6:00 pm63 °FSunny.13 mph83%30.18 "Hg10 mi
5:30 pm64 °FSunny.14 mph78%30.18 "Hg10 mi
5:00 pm66 °FSunny.12 mph73%30.18 "Hg10 mi
4:30 pm66 °FSunny.14 mph73%30.18 "Hg10 mi
4:00 pm66 °FSunny.13 mph73%30.18 "Hg10 mi
3:30 pm68 °FSunny.14 mph69%30.18 "Hg10 mi
3:00 pm68 °FSunny.9 mph69%30.21 "Hg10 mi
2:30 pm68 °FSunny.9 mph69%30.21 "Hg10 mi
2:00 pm68 °FPassing clouds.9 mph69%30.21 "HgN/A
Weather by CustomWeather, © 2019

See weather overview